TimeCDT,TemperatureF,Dew PointF,Humidity,Sea Level PressureIn,VisibilityMPH,Wind Direction,Wind SpeedMPH,Gust SpeedMPH,PrecipitationIn,Events,Conditions,WindDirDegrees,DateUTC
12:15 AM,26.6,19.9,76,30.06,10.0,East,9.2,-,N/A,,Overcast,90,2013-03-17 05:15:00
12:35 AM,26.6,19.9,76,30.05,10.0,ESE,12.7,-,N/A,,Overcast,110,2013-03-17 05:35:00
12:55 AM,26.6,19.8,75,30.05,4.0,ESE,10.4,-,N/A,Snow,Light Snow,120,2013-03-17 05:55:00
1:15 AM,26.4,20.1,77,30.04,10.0,ESE,11.5,-,N/A,Snow,Light Snow,120,2013-03-17 06:15:00
1:35 AM,26.6,20.1,77,30.02,10.0,ESE,9.2,-,N/A,,Overcast,110,2013-03-17 06:35:00
1:55 AM,26.6,19.9,76,29.99,10.0,ESE,12.7,-,N/A,,Overcast,120,2013-03-17 06:55:00
2:15 AM,26.2,20.3,78,29.99,10.0,ESE,9.2,-,N/A,Snow,Light Snow,120,2013-03-17 07:15:00
2:35 AM,26.2,20.7,79,29.98,10.0,ESE,11.5,-,N/A,,Overcast,120,2013-03-17 07:35:00
2:55 AM,26.1,20.5,79,29.97,10.0,SE,11.5,-,N/A,,Overcast,130,2013-03-17 07:55:00
3:15 AM,26.2,20.7,79,29.97,10.0,ESE,10.4,-,N/A,,Overcast,120,2013-03-17 08:15:00
3:35 AM,26.2,20.1,78,29.96,10.0,SE,11.5,-,N/A,,Overcast,140,2013-03-17 08:35:00
3:55 AM,26.4,20.3,78,29.96,10.0,ESE,9.2,-,N/A,,Overcast,120,2013-03-17 08:55:00
4:15 AM,26.4,20.3,78,29.95,10.0,SE,9.2,-,N/A,,Overcast,130,2013-03-17 09:15:00
4:35 AM,26.4,20.3,78,29.94,10.0,SE,9.2,-,N/A,,Overcast,130,2013-03-17 09:35:00
4:55 AM,26.4,19.9,77,29.94,10.0,ESE,9.2,-,N/A,,Overcast,120,2013-03-17 09:55:00
5:15 AM,26.2,20.3,78,29.94,10.0,SE,11.5,-,N/A,,Overcast,140,2013-03-17 10:15:00
5:35 AM,26.1,20.3,79,29.92,10.0,SE,11.5,-,N/A,,Overcast,130,2013-03-17 10:35:00
5:55 AM,26.1,20.7,80,29.92,10.0,SE,12.7,-,N/A,,Overcast,140,2013-03-17 10:55:00
6:15 AM,26.1,20.7,80,29.92,10.0,SSE,13.8,-,N/A,,Overcast,150,2013-03-17 11:15:00
6:35 AM,25.9,20.7,81,29.91,10.0,SSE,13.8,-,N/A,,Overcast,150,2013-03-17 11:35:00
6:55 AM,26.1,21.0,81,29.90,10.0,SE,15.0,-,N/A,,Overcast,140,2013-03-17 11:55:00
7:15 AM,26.2,21.2,81,29.89,10.0,SSE,17.3,-,N/A,,Overcast,150,2013-03-17 12:15:00
7:35 AM,26.4,21.6,82,29.89,10.0,SSE,15.0,-,N/A,,Overcast,150,2013-03-17 12:35:00
7:55 AM,26.4,21.6,82,29.88,10.0,SSE,16.1,-,N/A,,Overcast,150,2013-03-17 12:55:00
8:15 AM,26.6,21.9,82,29.87,10.0,SSE,17.3,21.9,N/A,,Overcast,150,2013-03-17 13:15:00
8:35 AM,27.0,21.9,81,29.87,10.0,SE,15.0,-,N/A,,Overcast,140,2013-03-17 13:35:00
8:55 AM,27.0,21.6,80,29.85,10.0,SSE,19.6,24.2,N/A,,Overcast,150,2013-03-17 13:55:00
9:15 AM,27.5,22.1,80,29.85,10.0,SSE,18.4,24.2,N/A,,Overcast,160,2013-03-17 14:15:00
9:35 AM,28.0,22.1,78,29.84,10.0,SSE,19.6,25.3,N/A,,Overcast,160,2013-03-17 14:35:00
9:55 AM,28.8,22.6,78,29.83,10.0,SSE,23.0,26.5,N/A,,Overcast,160,2013-03-17 14:55:00
10:15 AM,29.1,23.4,79,29.81,10.0,SSE,19.6,26.5,N/A,,Overcast,150,2013-03-17 15:15:00
10:35 AM,30.2,23.0,75,29.80,10.0,SSE,26.5,31.1,N/A,,Overcast,150,2013-03-17 15:35:00
10:55 AM,29.8,23.0,76,29.79,10.0,SSE,19.6,28.8,N/A,,Overcast,150,2013-03-17 15:55:00
11:15 AM,30.2,23.4,76,29.78,10.0,SSE,23.0,32.2,N/A,,Overcast,150,2013-03-17 16:15:00
11:35 AM,31.5,23.0,71,29.77,10.0,SSE,20.7,32.2,N/A,,Overcast,160,2013-03-17 16:35:00
11:55 AM,31.1,23.0,72,29.76,10.0,SSE,23.0,29.9,N/A,,Overcast,150,2013-03-17 16:55:00
12:15 PM,32.7,23.4,68,29.73,10.0,SSE,26.5,29.9,N/A,,Overcast,150,2013-03-17 17:15:00
12:35 PM,32.4,23.2,69,29.72,10.0,SSE,24.2,29.9,N/A,,Overcast,160,2013-03-17 17:35:00
12:55 PM,33.3,23.7,68,29.71,10.0,SSE,23.0,29.9,N/A,,Overcast,160,2013-03-17 17:55:00
1:15 PM,35.2,24.4,65,29.69,10.0,South,26.5,31.1,N/A,,Overcast,170,2013-03-17 18:15:00
1:35 PM,35.1,25.0,67,29.67,10.0,SSE,27.6,34.5,N/A,,Overcast,160,2013-03-17 18:35:00
1:55 PM,35.6,25.7,67,29.65,10.0,South,26.5,35.7,N/A,,Overcast,170,2013-03-17 18:55:00
2:15 PM,35.8,26.4,69,29.65,10.0,South,25.3,32.2,N/A,,Overcast,170,2013-03-17 19:15:00
2:35 PM,35.8,26.6,69,29.65,10.0,South,21.9,33.4,N/A,,Overcast,190,2013-03-17 19:35:00
2:55 PM,35.8,27.1,71,29.65,10.0,South,26.5,31.1,N/A,,Overcast,180,2013-03-17 19:55:00
3:15 PM,36.3,27.3,70,29.63,10.0,South,25.3,33.4,N/A,,Overcast,180,2013-03-17 20:15:00
3:35 PM,35.4,27.1,72,29.61,10.0,South,25.3,32.2,N/A,,Overcast,180,2013-03-17 20:35:00
3:55 PM,35.8,27.9,73,29.58,7.0,South,26.5,34.5,N/A,,Overcast,170,2013-03-17 20:55:00
4:15 PM,37.4,28.2,69,29.57,10.0,South,29.9,36.8,N/A,,Overcast,170,2013-03-17 21:15:00
4:35 PM,36.1,27.5,71,29.57,10.0,South,25.3,34.5,N/A,,Overcast,180,2013-03-17 21:35:00
4:55 PM,36.5,27.9,71,29.54,10.0,South,24.2,29.9,N/A,,Overcast,170,2013-03-17 21:55:00
5:15 PM,37.0,28.6,71,29.54,10.0,South,20.7,29.9,N/A,,Mostly Cloudy,180,2013-03-17 22:15:00
5:35 PM,37.4,29.3,73,29.53,10.0,South,27.6,34.5,N/A,,Scattered Clouds,170,2013-03-17 22:35:00
5:55 PM,38.3,30.7,74,29.52,10.0,South,28.8,34.5,N/A,,Mostly Cloudy,180,2013-03-17 22:55:00
6:15 PM,38.3,30.4,73,29.50,10.0,South,27.6,35.7,N/A,,Mostly Cloudy,170,2013-03-17 23:15:00
6:35 PM,38.3,30.6,74,29.50,10.0,South,24.2,33.4,N/A,,Scattered Clouds,170,2013-03-17 23:35:00
6:55 PM,37.8,30.6,75,29.50,10.0,South,27.6,35.7,N/A,,Scattered Clouds,180,2013-03-17 23:55:00
7:15 PM,38.3,30.9,75,29.49,10.0,South,26.5,35.7,N/A,,Clear,180,2013-03-18 00:15:00
7:35 PM,37.9,30.6,75,29.50,10.0,South,26.5,34.5,N/A,,Clear,190,2013-03-18 00:35:00
7:55 PM,37.4,30.2,75,29.49,10.0,South,26.5,35.7,N/A,,Clear,190,2013-03-18 00:55:00
8:15 PM,37.0,30.2,76,29.50,10.0,South,24.2,34.5,N/A,,Clear,190,2013-03-18 01:15:00
8:35 PM,36.7,30.2,77,29.49,10.0,South,27.6,36.8,N/A,,Clear,190,2013-03-18 01:35:00
8:55 PM,36.3,30.2,78,29.50,10.0,South,25.3,32.2,N/A,,Clear,190,2013-03-18 01:55:00
9:15 PM,36.3,30.2,78,29.52,10.0,South,24.2,34.5,N/A,,Clear,190,2013-03-18 02:15:00
9:35 PM,36.5,30.2,78,29.58,10.0,SW,17.3,27.6,N/A,,Clear,230,2013-03-18 02:35:00
9:55 PM,37.8,30.7,76,29.58,10.0,WSW,16.1,26.5,N/A,,Mostly Cloudy,250,2013-03-18 02:55:00
10:15 PM,38.7,31.8,76,29.62,10.0,NW,25.3,34.5,N/A,,Mostly Cloudy,310,2013-03-18 03:15:00
10:35 PM,36.5,29.7,76,29.63,10.0,NW,26.5,38.0,N/A,,Overcast,320,2013-03-18 03:35:00
10:55 PM,35.6,28.4,75,29.64,10.0,NW,20.7,28.8,N/A,,Overcast,310,2013-03-18 03:55:00
11:15 PM,34.3,26.1,72,29.66,10.0,NW,20.7,34.5,N/A,,Mostly Cloudy,310,2013-03-18 04:15:00
11:35 PM,33.3,25.2,72,29.68,10.0,NW,20.7,27.6,N/A,,Clear,310,2013-03-18 04:35:00
11:55 PM,32.9,25.3,74,29.69,10.0,WNW,15.0,26.5,N/A,,Clear,300,2013-03-18 04:55:00